Location: Pcim
(49.7500°N, 19.9670°E)
Time: 03:59:06
(UTC+02:00)

AO-91 - Pass Details

Date: 30 April 2024
Orbit: 441 x 736 km, 97.6° (Epoch: 23 May)

Event Time Altitude Azimuth Distance (km) Brightness Sun altitude
Rises 21:45:57 0° 23° (NNE) 2,466 ? -15.0°
Reaches altitude 10° 21:48:09 10° 37° (NE) 1,609 ? -15.2°
Maximum altitude 21:51:07 27° 97° (E) 946 ? -15.5°
Enters shadow 21:51:17 27° 102° (ESE) 950 ? -15.6°
